This is the latest recevied weather packets stored in our database for station/object N9EA. If no packets are shown the sender has not sent any weather packets the latest 1 day(s).
| Time | Temp. | Humidity | Pressure | Rain* | Wind** | Luminosity | Snow |
|---|---|---|---|---|---|---|---|
| 1778040303 | 10.56° C | 52% | 1010.5 hPa | 0 mm | - | 0 W/m² | - |
| 1778039998 | 10.56° C | 51% | 1010.5 hPa | 0 mm | - | 0 W/m² | - |
| 1778039695 | 10.56° C | 50% | 1010.5 hPa | 0 mm | - | 0 W/m² | - |
| 1778039392 | 11.11° C | 50% | 1010.5 hPa | 0 mm | - | 0 W/m² | - |
| 1778039089 | 11.11° C | 51% | 1010.4 hPa | 0 mm | - | 0 W/m² | - |
| 1778038786 | 11.11° C | 49% | 1010.4 hPa | 0 mm | - | 0 W/m² | - |
| 1778038484 | 11.11° C | 49% | 1010.3 hPa | 0 mm | - | 0 W/m² | - |
| 1778038180 | 11.11° C | 49% | 1010.2 hPa | 0 mm | - | 0 W/m² | - |
| 1778037878 | 11.67° C | 48% | 1010.2 hPa | 0 mm | - | 0 W/m² | - |
| 1778037574 | 11.67° C | 48% | 1010.2 hPa | 0 mm | - | 0 W/m² | - |
| 1778037271 | 11.67° C | 48% | 1010.4 hPa | 0 mm | - | 0 W/m² | - |
| 1778036969 | 11.11° C | 49% | 1010.3 hPa | 0 mm | - | 0 W/m² | - |
| 1778036667 | 11.11° C | 56% | 1010.1 hPa | 0 mm | - | 0 W/m² | - |
| 1778036363 | 11.11° C | 56% | 1010.2 hPa | 0 mm | - | 0 W/m² | - |
| 1778035757 | 11.11° C | 56% | 1010.2 hPa | 0 mm | - | 0 W/m² | - |
| 1778035454 | 11.11° C | 58% | 1010.1 hPa | 0 mm | - | 0 W/m² | - |
| 1778035150 | 11.11° C | 55% | 1009.5 hPa | 0 mm | - | 0 W/m² | - |
| 1778034847 | 11.11° C | 54% | 1009.5 hPa | 0 mm | - | 0 W/m² | - |
| 1778034241 | 11.11° C | 54% | 1009.3 hPa | 0 mm | - | 0 W/m² | - |
| 1778033939 | 11.11° C | 55% | 1009.1 hPa | 0 mm | - | 0 W/m² | - |
| 1778033636 | 11.11° C | 54% | 1009.1 hPa | 0 mm | - | 0 W/m² | - |
| 1778033031 | 11.11° C | 53% | 1008.9 hPa | 0 mm | - | 0 W/m² | - |
| 1778032728 | 11.67° C | 53% | 1009 hPa | 0 mm | - | 0 W/m² | - |
| 1778032122 | 11.67° C | 52% | 1008.9 hPa | 0 mm | - | 0 W/m² | - |
| 1778031819 | 11.67° C | 51% | 1008.7 hPa | 0 mm | - | 0 W/m² | - |
* Rain latest hour (hover to see other rain measurements)
** Current wind speed in m/s (hover to see current wind gust speed)